Boone, IA

10:28 AM CDT on August 22, 2017 (GMT -0500)
Boone Municipal

Weather History for KBNW - February, 2013

Change the Weather History Date:

Friday, February 22, 2013

  Actual Average Record
Temperature  
Mean Temperature 22 °F -  
Max Temperature 25 °F 40 °F 68 °F (2017)
Min Temperature 19 °F 17 °F -10 °F (1978)
Degree Days  
Heating Degree Days 43    
Moisture  
Dew Point 18 °F    
Average Humidity 84    
Maximum Humidity 93    
Minimum Humidity 75    
Precipitation  
Precipitation 0.04 in - - ()
Sea Level Pressure  
Sea Level Pressure 29.87 in    
Wind  
Wind Speed 12 mph (NW)    
Max Wind Speed 18 mph    
Max Gust Speed 25 mph    
Visibility 8 miles    
Events Snow    
Averages and records for this station are not official NWS values.
T = Trace of Precipitation, MM = Missing Value Source: NWS Daily Summary

Daily Weather History Graph

Daily Weather History Graph

Search for Another Location

Airport or City:

Trip Planner

Search our weather history database for the weather conditions in past years. The results will help you decide how hot, cold, wet, or windy it might be!

Date:

Astronomy

Feb. 22, 2013 Rise Set
Actual Time 7:00 AM CST 5:57 PM CST
Civil Twilight 6:32 AM CST 6:25 PM CST
Nautical Twilight 6:00 AM CST 6:58 PM CST
Astronomical Twilight 5:27 AM CST 7:30 PM CST
Moon 3:07 PM CST 4:48 AM CST
Length of Visible Light 11h 53m
Length of Day
10h 56m
Waxing Gibbous, 90% of the Moon is Illuminated
Feb 22
Waxing Gibbous
Feb 25
Full
Mar 4
Last Quarter
Mar 11
New
Mar 19
First Quarter

Hourly Weather History & Observations

Time (CST) Temp. Windchill Dew Point Humidity Pressure Visibility Wind Dir Wind Speed Gust Speed Precip Events Conditions
12:15 AM 21.2 °F 7.3 °F 19.2 °F 92% 29.84 in 3.0 mi NE 16.1 mph - N/A Snow Light Snow
12:35 AM 21.6 °F 7.8 °F 19.2 °F 91% 29.83 in 1.5 mi NE 16.1 mph - N/A Snow Light Snow
12:55 AM 21.6 °F 7.8 °F 19.4 °F 91% 29.83 in 2.5 mi NE 16.1 mph - N/A Snow Light Snow
1:15 AM 21.9 °F 8.2 °F 19.6 °F 91% 29.82 in 2.5 mi ENE 16.1 mph - N/A Snow Light Snow
1:35 AM 22.1 °F 8.5 °F 19.9 °F 91% 29.81 in 4.0 mi ENE 16.1 mph - N/A Snow Light Snow
1:55 AM 22.1 °F 10.0 °F 20.1 °F 92% 29.81 in 3.0 mi ENE 12.7 mph - N/A Snow Light Snow
2:15 AM 22.5 °F 10.5 °F 20.3 °F 91% 29.80 in 4.0 mi ENE 12.7 mph - N/A Snow Light Snow
2:35 AM 22.5 °F 10.5 °F 20.3 °F 91% 29.80 in 4.0 mi ENE 12.7 mph - N/A Snow Light Snow
2:55 AM 22.5 °F 12.4 °F 20.3 °F 91% 29.79 in 3.0 mi ENE 9.2 mph - N/A Snow Light Snow
3:15 AM 22.5 °F 13.2 °F 20.3 °F 91% 29.79 in 3.0 mi NE 8.1 mph - 0.02 in Snow Light Snow
3:35 AM 22.5 °F 13.2 °F 20.3 °F 91% 29.78 in 2.5 mi NE 8.1 mph - 0.02 in Snow Light Snow
3:55 AM 22.1 °F 12.8 °F 20.3 °F 93% 29.78 in 3.0 mi NE 8.1 mph - 0.02 in Snow Light Snow
4:15 AM 22.6 °F 11.9 °F 20.3 °F 91% 29.78 in 5.0 mi ENE 10.4 mph - N/A Snow Light Snow
4:35 AM 22.1 °F 13.7 °F 20.3 °F 93% 29.78 in 4.0 mi NNE 6.9 mph - N/A Snow Light Snow
4:55 AM 21.2 °F 12.6 °F 19.4 °F 93% 29.77 in 5.0 mi North 6.9 mph - N/A Snow Light Snow
5:15 AM 21.7 °F 14.3 °F 19.6 °F 91% 29.78 in 7.0 mi North 5.8 mph - 0.01 in Snow Light Snow
5:35 AM 21.2 °F 12.6 °F 19.2 °F 92% 29.78 in 7.0 mi North 6.9 mph - 0.02 in Snow Light Snow
5:55 AM 21.0 °F 11.4 °F 19.2 °F 93% 29.79 in 7.0 mi NNW 8.1 mph - 0.02 in Snow Light Snow
6:15 AM 21.6 °F 12.1 °F 19.4 °F 91% 29.79 in 7.0 mi NNW 8.1 mph - N/A Snow Light Snow
6:35 AM 21.2 °F 11.7 °F 19.4 °F 93% 29.79 in 10.0 mi NNW 8.1 mph - N/A Snow Light Snow
6:55 AM 21.2 °F 10.9 °F 19.2 °F 92% 29.79 in 10.0 mi NNW 9.2 mph - N/A Snow Light Snow
7:15 AM 21.0 °F 12.4 °F 18.7 °F 91% 29.79 in 7.0 mi NNW 6.9 mph - N/A Snow Light Snow
7:35 AM 19.6 °F 8.9 °F 17.6 °F 92% 29.80 in 10.0 mi NNW 9.2 mph - N/A Snow Light Snow
7:55 AM 20.3 °F 9.8 °F 18.1 °F 91% 29.80 in 10.0 mi NNW 9.2 mph - N/A   Scattered Clouds
8:15 AM 20.8 °F 9.7 °F 18.3 °F 90% 29.80 in 10.0 mi NNW 10.4 mph - N/A   Scattered Clouds
8:35 AM 21.2 °F 10.1 °F 18.5 °F 89% 29.81 in 10.0 mi NNW 10.4 mph - N/A   Mostly Cloudy
8:55 AM 21.2 °F 10.1 °F 18.9 °F 91% 29.81 in 10.0 mi NNW 10.4 mph - N/A Snow Light Snow
9:15 AM 21.7 °F 10.8 °F 19.0 °F 89% 29.81 in 4.0 mi NNW 10.4 mph - N/A Snow Light Snow
9:35 AM 21.9 °F 12.5 °F 19.2 °F 89% 29.82 in 4.0 mi NW 8.1 mph - N/A Snow Light Snow
10:15 AM 23.7 °F 14.7 °F 20.3 °F 87% 29.84 in 2.5 mi WNW 8.1 mph - N/A Snow Light Snow
10:35 AM 24.6 °F 17.7 °F 20.3 °F 84% 29.86 in 7.0 mi NW 5.8 mph - N/A   Overcast
10:55 AM 24.8 °F 17.9 °F 20.3 °F 83% 29.86 in 10.0 mi WNW 5.8 mph - N/A   Overcast
11:15 AM 25.7 °F 16.4 °F 20.5 °F 81% 29.86 in 10.0 mi West 9.2 mph - N/A   Overcast
11:35 AM 24.8 °F 14.6 °F 19.8 °F 81% 29.87 in 10.0 mi West 10.4 mph - N/A   Mostly Cloudy
11:55 AM 24.8 °F 16.1 °F 19.6 °F 81% 29.87 in 10.0 mi West 8.1 mph - N/A   Scattered Clouds
12:15 PM 25.2 °F 15.7 °F 19.4 °F 79% 29.87 in 10.0 mi WNW 9.2 mph - N/A   Clear
12:35 PM 25.2 °F 14.4 °F 19.4 °F 79% 29.87 in 10.0 mi West 11.5 mph - N/A   Clear
12:55 PM 25.2 °F 13.9 °F 19.4 °F 79% 29.87 in 10.0 mi West 12.7 mph - N/A   Scattered Clouds
1:15 PM 25.0 °F 12.6 °F 19.4 °F 79% 29.88 in 3.0 mi West 15.0 mph 18.4 mph N/A   Haze
1:35 PM 25.2 °F 12.9 °F 19.4 °F 79% 29.88 in 4.0 mi West 15.0 mph 18.4 mph N/A   Haze
1:55 PM 23.9 °F 11.2 °F 18.7 °F 80% 29.88 in 10.0 mi West 15.0 mph - N/A   Mostly Cloudy
2:15 PM 23.9 °F 9.9 °F 18.5 °F 80% 29.89 in 10.0 mi West 18.4 mph 25.3 mph N/A   Overcast
2:35 PM 23.9 °F 10.8 °F 18.5 °F 80% 29.89 in 10.0 mi WNW 16.1 mph 21.9 mph N/A   Overcast
2:55 PM 24.3 °F 12.2 °F 17.6 °F 76% 29.89 in 10.0 mi WNW 13.8 mph - N/A   Overcast
3:15 PM 24.3 °F 10.8 °F 18.0 °F 77% 29.90 in 10.0 mi West 17.3 mph 20.7 mph N/A   Overcast
3:35 PM 23.9 °F 11.2 °F 17.6 °F 77% 29.91 in 10.0 mi West 15.0 mph 21.9 mph N/A   Overcast
3:55 PM 23.9 °F 10.8 °F 17.2 °F 76% 29.92 in 10.0 mi WNW 16.1 mph - N/A   Overcast
4:15 PM 23.7 °F 10.5 °F 17.6 °F 77% 29.92 in 10.0 mi West 16.1 mph 24.2 mph N/A   Overcast
4:35 PM 23.0 °F 10.6 °F 16.7 °F 77% 29.93 in 10.0 mi WNW 13.8 mph 25.3 mph N/A   Overcast
4:55 PM 23.4 °F 12.2 °F 16.5 °F 75% 29.93 in 10.0 mi West 11.5 mph - N/A   Overcast
5:15 PM 23.4 °F 11.6 °F 16.5 °F 75% 29.93 in 10.0 mi WNW 12.7 mph - N/A   Overcast
5:35 PM 23.4 °F 11.1 °F 17.1 °F 77% 29.94 in 10.0 mi West 13.8 mph 17.3 mph N/A   Overcast
5:55 PM 23.5 °F 13.0 °F 17.6 °F 78% 29.94 in 10.0 mi WNW 10.4 mph - N/A   Overcast
6:15 PM 23.4 °F 12.8 °F 17.1 °F 77% 29.94 in 10.0 mi WNW 10.4 mph 16.1 mph N/A   Overcast
6:35 PM 23.4 °F 12.8 °F 17.6 °F 79% 29.94 in 10.0 mi WNW 10.4 mph - N/A   Overcast
6:55 PM 23.0 °F 14.7 °F 17.1 °F 78% 29.95 in 10.0 mi WNW 6.9 mph - N/A   Overcast
7:15 PM 22.5 °F 12.4 °F 16.7 °F 79% 29.96 in 10.0 mi WNW 9.2 mph - N/A   Overcast
7:35 PM 21.9 °F 10.4 °F 16.7 °F 80% 29.96 in 10.0 mi West 11.5 mph - N/A   Overcast
7:55 PM 21.7 °F 11.5 °F 16.7 °F 81% 29.96 in 10.0 mi West 9.2 mph - N/A   Overcast
8:15 PM 21.6 °F 14.0 °F 16.7 °F 82% 29.96 in 10.0 mi West 5.8 mph - N/A   Overcast
8:35 PM 21.6 °F 13.0 °F 16.7 °F 82% 29.96 in 10.0 mi West 6.9 mph - N/A   Overcast
8:55 PM 21.6 °F 13.0 °F 17.1 °F 83% 29.96 in 10.0 mi West 6.9 mph - N/A   Overcast
9:15 PM 21.7 °F 13.2 °F 17.1 °F 82% 29.96 in 10.0 mi West 6.9 mph - N/A   Overcast
9:35 PM 21.9 °F 13.4 °F 16.7 °F 80% 29.96 in 10.0 mi West 6.9 mph - N/A   Overcast
9:55 PM 21.7 °F 13.2 °F 16.7 °F 81% 29.96 in 10.0 mi West 6.9 mph - N/A   Overcast
10:15 PM 21.7 °F 11.5 °F 16.7 °F 81% 29.96 in 10.0 mi West 9.2 mph - N/A   Overcast
10:35 PM 21.6 °F 14.0 °F 16.5 °F 81% 29.96 in 10.0 mi West 5.8 mph - N/A   Overcast
10:55 PM 21.2 °F 11.7 °F 16.3 °F 82% 29.96 in 10.0 mi West 8.1 mph - N/A   Overcast
11:15 PM 21.2 °F 10.9 °F 15.8 °F 80% 29.95 in 10.0 mi West 9.2 mph - N/A   Overcast
11:35 PM 21.2 °F 9.5 °F 15.8 °F 80% 29.95 in 10.0 mi West 11.5 mph - N/A   Overcast
11:55 PM 20.8 °F 9.7 °F 15.8 °F 81% 29.95 in 10.0 mi West 10.4 mph - N/A   Overcast